Date String (YYYY-MM-DD hh:mm:ss) UTC,Instrument flags,absolute air pressure of the measurement (hPa),sample flow rate (lpm),inlet stack bypass flow (lpm),air temperature of the measurement (°C),ambient temperature measured by the external sensor (°C),aerosol sample conditioner tube jacket temperature (°C),OPC LED temperature (°C),internal box temperature (°C),relative humidity of the measurement (%),span deviation,mass concentration of particles derived from Lorenz-Mie calculation of OPC scattering (μg/m³),mass concentration of particles derived from Lorenz-Mie calculation of OPC scattering (μg/m³),mass concentration of particles derived from Lorenz-Mie calculation of OPC scattering (μg/m³)
DateTimeUTC,F1_M11,P_M11,Q1_M11,Q2_M11,T1_M11,T2_M11,T3_M11,T4_M11,T5_M11,U1_M11,ZSPAN_M11,X0_M11,X2_M11,X1_M11
2024-05-18 15:00:00,SystemResetWarning,0830.1,5.00,000.00,024.7,023.8,000.0,033.1,026.5,024.6,0000.0,0018.76,0005.32,0003.51
2024-05-18 15:01:00,SystemResetWarning,0830.1,5.00,000.00,024.8,023.9,000.0,033.1,026.6,024.7,0000.0,0018.07,0005.32,0003.53
2024-05-18 15:02:00,SystemResetWarning,0830.1,5.00,000.00,024.8,024.0,000.0,033.1,026.6,024.9,0000.0,0016.86,0005.33,0003.53
2024-05-18 15:03:00,SystemResetWarning,0830.1,5.00,000.00,024.9,024.1,000.0,033.1,026.7,025.2,0000.0,0016.48,0005.34,0003.53
2024-05-18 15:04:00,SystemResetWarning,0830.1,5.00,000.00,024.9,024.2,000.0,033.1,026.7,025.1,0000.0,0016.24,0005.33,0003.53
2024-05-18 15:05:00,SystemResetWarning,0830.1,5.00,000.00,024.9,024.3,000.0,033.2,026.8,024.6,0000.0,0016.56,0005.37,0003.52
2024-05-18 15:06:00,SystemResetWarning,0830.0,5.01,000.00,025.0,024.4,000.0,033.2,026.8,024.7,0000.0,0016.48,0005.30,0003.52
2024-05-18 15:07:00,SystemResetWarning,0830.0,5.00,000.00,025.0,024.5,000.0,033.2,026.9,025.0,0000.0,0016.65,0005.29,0003.53
2024-05-18 15:08:00,SystemResetWarning,0830.0,5.00,000.00,025.1,024.5,000.0,033.2,026.9,025.2,0000.0,0016.49,0005.31,0003.55
2024-05-18 15:09:00,SystemResetWarning,0830.0,5.00,000.00,025.1,024.6,000.0,033.2,027.0,025.0,0000.0,0017.90,0005.37,0003.57
2024-05-18 15:10:00,SystemResetWarning,0830.0,4.99,000.00,025.2,024.6,000.0,033.3,027.0,025.1,0000.0,0018.38,0005.35,0003.56
2024-05-18 15:11:00,SystemResetWarning,0830.1,4.99,000.00,025.2,024.7,000.0,033.3,027.1,025.3,0000.0,0018.55,0005.34,0003.57
2024-05-18 15:12:00,SystemResetWarning,0830.0,5.00,000.00,025.2,024.1,000.0,033.4,026.7,024.2,0000.0,0018.74,0005.33,0003.57
2024-05-18 15:13:00,SystemResetWarning,0830.0,5.00,000.00,024.8,022.0,000.0,033.4,025.6,024.6,0000.0,0019.02,0005.30,0003.58
2024-05-18 15:14:00,SystemResetWarning,0830.0,5.02,000.00,024.5,021.4,000.0,033.4,025.2,025.3,0000.0,0019.76,0005.31,0003.58
2024-05-18 15:15:00,SystemResetWarning,0830.0,5.00,000.00,024.3,021.8,000.0,033.3,025.3,025.5,0000.0,0021.01,0005.35,0003.59
2024-05-18 15:16:00,SystemResetWarning,0830.0,4.99,000.00,024.3,022.2,000.0,033.1,025.5,025.9,0000.0,0020.65,0005.33,0003.60
2024-05-18 15:17:00,SystemResetWarning,0830.0,5.02,000.00,024.3,022.5,000.0,033.0,025.7,025.9,0000.0,0021.17,0005.27,0003.58
2024-05-18 15:18:00,SystemResetWarning,0830.0,5.00,000.00,024.4,022.8,000.0,032.9,025.9,025.9,0000.0,0022.38,0005.36,0003.59
2024-05-18 15:19:00,SystemResetWarning,0830.0,5.00,000.00,024.4,023.1,000.0,032.9,026.0,025.7,0000.0,0022.29,0005.45,0003.60
2024-05-18 15:20:00,SystemResetWarning,0830.0,5.00,000.00,024.4,023.3,000.0,032.9,026.2,025.7,0000.0,0020.93,0005.44,0003.61
2024-05-18 15:21:00,SystemResetWarning,0830.0,5.00,000.00,024.5,023.5,000.0,032.9,026.3,026.1,0000.0,0020.98,0005.44,0003.63
2024-05-18 15:22:00,SystemResetWarning,0830.0,5.00,000.00,024.5,023.7,000.0,032.8,026.3,025.8,0000.0,0021.17,0005.43,0003.63
2024-05-18 15:23:00,SystemResetWarning,0830.0,5.00,000.00,024.6,023.8,000.0,032.8,026.4,025.9,0000.0,0021.98,0005.39,0003.63
2024-05-18 15:24:00,SystemResetWarning,0830.0,5.00,000.00,024.6,023.9,000.0,032.9,026.5,026.0,0000.0,0022.64,0005.37,0003.62
2024-05-18 15:25:00,SystemResetWarning,0830.0,5.00,000.00,024.7,024.1,000.0,032.9,026.6,025.9,0000.0,0022.00,0005.32,0003.61
2024-05-18 15:26:00,SystemResetWarning,0830.0,4.99,000.00,024.7,024.2,000.0,032.9,026.6,025.5,0000.0,0020.62,0005.28,0003.60
2024-05-18 15:27:00,SystemResetWarning,0830.0,5.00,000.00,024.8,024.2,000.0,032.9,026.7,025.3,0000.0,0020.40,0005.28,0003.59
2024-05-18 15:28:00,SystemResetWarning,0830.1,5.00,000.00,024.8,024.3,000.0,032.9,026.7,025.7,0000.0,0021.31,0005.33,0003.60
2024-05-18 15:29:00,SystemResetWarning,0830.0,5.00,000.00,024.9,024.4,000.0,033.0,026.7,025.7,0000.0,0021.75,0005.31,0003.61
2024-05-18 15:30:00,SystemResetWarning,0830.0,5.00,000.00,024.9,024.4,000.0,033.0,026.8,025.3,0000.0,0022.39,0005.25,0003.61
2024-05-18 15:31:00,SystemResetWarning,0830.0,5.00,000.00,025.0,024.5,000.0,033.0,026.8,025.1,0000.0,0022.68,0005.23,0003.59
2024-05-18 15:32:00,SystemResetWarning,0830.0,5.00,000.00,025.0,024.5,000.0,033.1,026.9,024.9,0000.0,0023.40,0005.21,0003.57
2024-05-18 15:33:00,SystemResetWarning,0830.0,4.99,000.00,025.1,024.6,000.0,033.1,026.9,024.8,0000.0,0022.71,0005.19,0003.56
2024-05-18 15:34:00,SystemResetWarning,0830.0,4.99,000.00,025.1,024.5,000.0,033.1,026.8,024.9,0000.0,0021.80,0005.21,0003.55
2024-05-18 15:35:00,SystemResetWarning,0830.0,5.00,000.00,024.9,022.8,000.0,033.2,026.0,025.3,0000.0,0021.68,0005.25,0003.53
2024-05-18 15:36:00,SystemResetWarning,0829.8,5.01,000.00,024.5,021.4,000.0,033.2,025.2,026.9,0000.0,0022.21,0005.33,0003.53
2024-05-18 15:37:00,SystemResetWarning,0829.8,5.01,000.00,024.3,021.7,000.0,033.2,025.2,026.9,0000.0,0022.81,0005.40,0003.53
2024-05-18 15:38:00,SystemResetWarning,0829.9,4.99,000.00,024.3,022.1,000.0,033.0,025.4,026.2,0000.0,0023.38,0005.42,0003.53
2024-05-18 15:39:00,SystemResetWarning,0830.0,5.00,000.00,024.3,022.4,000.0,032.9,025.6,026.4,0000.0,0022.74,0005.45,0003.52
2024-05-18 15:40:00,SystemResetWarning,0830.0,5.00,000.00,024.3,022.7,000.0,032.9,025.8,025.0,0000.0,0021.60,0005.36,0003.49
2024-05-18 15:41:00,SystemResetWarning,0830.0,5.00,000.00,024.3,023.0,000.0,032.8,026.0,024.4,0000.0,0020.29,0005.30,0003.45
2024-05-18 15:42:00,SystemResetWarning,0830.0,4.99,000.00,024.4,023.2,000.0,032.8,026.1,024.9,0000.0,0020.85,0005.34,0003.43
2024-05-18 15:43:00,SystemResetWarning,0830.0,4.99,000.00,024.4,023.4,000.0,032.8,026.2,025.2,0000.0,0021.29,0005.34,0003.42
2024-05-18 15:44:00,SystemResetWarning,0830.0,5.01,000.00,024.5,023.6,000.0,032.8,026.3,025.1,0000.0,0022.93,0005.36,0003.42
2024-05-18 15:45:00,SystemResetWarning,0830.0,5.00,000.00,024.5,023.7,000.0,032.8,026.3,025.0,0000.0,0023.33,0005.37,0003.42
2024-05-18 15:46:00,SystemResetWarning,0830.0,5.00,000.00,024.6,023.9,000.0,032.8,026.4,024.5,0000.0,0023.00,0005.33,0003.41
2024-05-18 15:47:00,SystemResetWarning,0830.0,5.01,000.00,024.6,024.0,000.0,032.8,026.5,025.1,0000.0,0023.32,0005.28,0003.41
2024-05-18 15:48:00,SystemResetWarning,0830.0,5.00,000.00,024.7,024.1,000.0,032.8,026.5,025.1,0000.0,0023.08,0005.23,0003.40
2024-05-18 15:49:00,SystemResetWarning,0830.0,5.00,000.00,024.7,024.1,000.0,032.8,026.6,024.6,0000.0,0022.77,0005.24,0003.40
2024-05-18 15:50:00,SystemResetWarning,0830.0,5.00,000.00,024.8,024.2,000.0,032.8,026.6,024.4,0000.0,0023.12,0005.21,0003.39
2024-05-18 15:51:00,SystemResetWarning,0830.0,5.00,000.00,024.8,024.3,000.0,032.9,026.7,024.5,0000.0,0023.10,0005.27,0003.40
2024-05-18 15:52:00,SystemResetWarning,0830.1,5.00,000.00,024.9,024.4,000.0,032.9,026.7,024.2,0000.0,0024.30,0005.34,0003.42
2024-05-18 15:53:00,SystemResetWarning,0830.0,5.00,000.00,024.9,024.4,000.0,032.9,026.8,024.0,0000.0,0024.37,0005.32,0003.43
2024-05-18 15:54:00,SystemResetWarning,0830.0,5.00,000.00,025.0,024.5,000.0,033.0,026.8,024.1,0000.0,0022.99,0005.33,0003.43
2024-05-18 15:55:00,SystemResetWarning,0830.0,5.00,000.00,025.0,024.5,000.0,033.0,026.9,024.0,0000.0,0023.19,0005.35,0003.43
2024-05-18 15:56:00,SystemResetWarning,0830.0,5.00,000.00,025.0,024.6,000.0,033.0,026.9,024.2,0000.0,0023.10,0005.30,0003.43
2024-05-18 15:57:00,SystemResetWarning,0830.0,4.98,000.00,025.0,023.5,000.0,033.1,026.4,023.9,0000.0,0023.78,0005.33,0003.44
2024-05-18 15:58:00,SystemResetWarning,0830.0,5.01,000.00,024.7,022.3,000.0,033.2,025.7,024.6,0000.0,0023.65,0005.29,0003.44
2024-05-18 15:59:00,SystemResetWarning,0829.9,5.01,000.00,024.5,022.5,000.0,033.1,025.8,025.7,0000.0,0023.36,0005.31,0003.45
